Valladolid(Mil/C, Spain

2:03 AM CET on February 20, 2017 (GMT +0100)
Valladolid Airport

Weather History for LEVD - September, 2013

Change the Weather History Date:

Friday, September 27, 2013

  Actual Average Record
Temperature  
Mean Temperature 65 °F -  
Max Temperature 75 °F - - ()
Min Temperature 55 °F - - ()
Growing Degree Days 15 (Base 50)    
Moisture  
Dew Point 52 °F    
Average Humidity 69    
Maximum Humidity 94    
Minimum Humidity 36    
Precipitation  
Precipitation 0.00 in - - ()
Sea Level Pressure  
Sea Level Pressure 29.88 in    
Wind  
Wind Speed 7 mph ()    
Max Wind Speed 20 mph    
Max Gust Speed 29 mph    
Visibility 6.2 miles    
Events Rain , Thunderstorm    
T = Trace of Precipitation, MM = Missing Value Source: Averaged Metar Reports

Daily Weather History Graph

Daily Weather History Graph

Search for Another Location

Airport or City:

Trip Planner

Search our weather history database for the weather conditions in past years. The results will help you decide how hot, cold, wet, or windy it might be!

Date:

Astronomy

Sep. 27, 2013 Rise Set
Actual Time 8:12 AM CEST 8:07 PM CEST
Civil Twilight 7:44 AM CEST 8:35 PM CEST
Nautical Twilight 7:11 AM CEST 9:07 PM CEST
Astronomical Twilight 6:39 AM CEST 9:40 PM CEST
Moon 12:51 AM CEST (9/27) 3:40 PM CEST (9/27)
Length of Visible Light 12h 51m
Length of Day
11h 55m
Waning Gibbous, 48% of the Moon is Illuminated
Sep 27
Waning Gibbous
Oct 5
New
Oct 12
First Quarter
Oct 19
Full
Oct 27
Last Quarter

Hourly Weather History & Observations

Time (CEST) Temp. Dew Point Humidity Pressure Visibility Wind Dir Wind Speed Gust Speed Precip Events Conditions
7:00 AM 59.0 °F 48.2 °F 67% 29.92 in - South 3.5 mph - N/A   Clear
7:30 AM 60.8 °F 51.8 °F 72% 29.92 in - SSW 4.6 mph - N/A   Clear
8:00 AM 60.8 °F 51.8 °F 72% 29.92 in - South 3.5 mph - N/A   Clear
8:30 AM 60.8 °F 51.8 °F 72% 29.92 in - South 4.6 mph - N/A   Clear
9:00 AM 59.0 °F 50.0 °F 72% 29.92 in - SSE 3.5 mph - N/A   Clear
9:30 AM 59.0 °F 48.2 °F 67% 29.92 in - SE 3.5 mph - N/A   Clear
10:00 AM 64.4 °F 51.8 °F 64% 29.92 in 6.2 mi SSE 5.8 mph - N/A   Partly Cloudy
10:30 AM 64.4 °F 50.0 °F 59% 29.92 in 6.2 mi ESE 8.1 mph - N/A   Partly Cloudy
11:00 AM 68.0 °F 53.6 °F 60% 29.92 in 6.2 mi SE 6.9 mph - N/A   Partly Cloudy
11:30 AM 69.8 °F 53.6 °F 56% 29.92 in 6.2 mi SE 8.1 mph - N/A   Partly Cloudy
12:00 PM 69.8 °F 51.8 °F 53% 29.92 in 6.2 mi SSE 9.2 mph - N/A   Partly Cloudy
12:30 PM 71.6 °F 51.8 °F 50% 29.92 in 6.2 mi SSW 9.2 mph - N/A   Partly Cloudy
1:00 PM 71.6 °F 50.0 °F 46% 29.92 in 6.2 mi South 13.8 mph - N/A   Partly Cloudy
1:30 PM 73.4 °F 48.2 °F 41% 29.89 in 6.2 mi South 12.7 mph - N/A   Partly Cloudy
2:00 PM 75.2 °F 48.2 °F 38% 29.89 in 6.2 mi SSW 16.1 mph - N/A   Scattered Clouds
2:30 PM 75.2 °F 46.4 °F 36% 29.89 in 6.2 mi South 19.6 mph - N/A   Scattered Clouds
3:00 PM 75.2 °F 48.2 °F 38% 29.89 in 6.2 mi South 17.3 mph - N/A   Scattered Clouds
3:30 PM 73.4 °F 48.2 °F 41% 29.89 in 6.2 mi South 17.3 mph - N/A   Scattered Clouds
4:00 PM 71.6 °F 50.0 °F 46% 29.86 in 6.2 mi South 16.1 mph - N/A   Scattered Clouds
4:30 PM 71.6 °F 48.2 °F 43% 29.89 in 6.2 mi SW 18.4 mph - N/A   Scattered Clouds
5:00 PM 69.8 °F 50.0 °F 49% 29.89 in 6.2 mi SW 17.3 mph 28.8 mph N/A   Scattered Clouds
5:30 PM 64.4 °F 55.4 °F 73% 29.89 in 6.2 mi SW 10.4 mph - N/A Rain Rain
6:00 PM 64.4 °F 59.0 °F 83% 29.86 in 6.2 mi SW 5.8 mph - N/A Rain Light Rain
6:30 PM 62.6 °F 59.0 °F 88% 29.86 in 6.2 mi WSW 8.1 mph - N/A Rain Rain
7:00 PM 60.8 °F 59.0 °F 94% 29.86 in 6.2 mi WSW 6.9 mph - N/A Rain Rain
7:30 PM 60.8 °F 59.0 °F 94% 29.86 in 6.2 mi West 9.2 mph - N/A Rain Light Rain
8:00 PM 59.0 °F 55.4 °F 88% 29.86 in 6.2 mi West 10.4 mph - N/A   Light Drizzle
8:30 PM 57.2 °F 55.4 °F 94% 29.86 in 6.2 mi WNW 6.9 mph - N/A   Scattered Clouds
9:00 PM 57.2 °F 55.4 °F 94% 29.83 in 6.2 mi NNW 8.1 mph - N/A   Partly Cloudy
9:30 PM 57.2 °F 55.4 °F 94% 29.83 in 6.2 mi North 8.1 mph - N/A   Light Drizzle
10:00 PM 57.2 °F 53.6 °F 88% 29.83 in 6.2 mi NNW 8.1 mph - N/A Rain Rain
10:30 PM 55.4 °F 53.6 °F 94% 29.83 in 6.2 mi Variable 2.3 mph - N/A   Partly Cloudy
11:00 PM 55.4 °F 53.6 °F 94% 29.83 in 6.2 mi North 6.9 mph - N/A   Partly Cloudy
11:30 PM 55.4 °F 53.6 °F 94% 29.80 in 6.2 mi NE 8.1 mph - N/A   Scattered Clouds
11:45 PM 55.4 °F 53.6 °F 94% 29.83 in 6.2 mi ENE 8.1 mph - N/A Thunderstorm Thunderstorm